Precipitable_Water
0.60 0.58 0.58 0.59 0.60 0.60 0.60 0.59 0.61 0.64 0.65 0.66 0.65 0.63 0.62 0.59 0.56 0.55 0.56 0.58 0.59 0.60 0.62 0.63 0.63 0.65 0.67 0.69 0.71 0.75 0.74 0.64 0.60 0.59 0.60 0.63 0.81 0.81 0.78 0.86 0.95 1.07 1.27 1.35 1.36 1.31 1.19 1.23 1.24 1.37 1.33 1.31 1.28 1.18 1.21 1.24 1.22 1.16 0.70 0.55 0.52 0.63 0.63 0.72 0.69 0.78 0.86 0.79 0.94 1.05 1.08 0.97 0.91 1.10 1.18 1.33 1.24 1.23 1.26 1.25 1.38 1.50 1.55 1.65 1.70 1.82 1.89 1.93
0.63 0.60 0.58 0.58 0.59 0.60 0.60 0.60 0.59 0.60 0.62 0.63 0.63 0.62 0.60 0.58 0.56 0.55 0.54 0.54 0.56 0.58 0.58 0.60 0.63 0.62 0.64 0.66 0.70 0.73 0.71 0.64 0.58 0.61 0.61 0.75 0.85 0.79 0.84 0.94 1.03 1.09 1.18 1.14 1.11 1.10 1.06 1.06 1.14 1.24 1.19 1.10 1.30 1.11 1.25 1.03 1.20 0.75 0.60 0.58 0.53 0.64 0.70 0.84 0.82 0.87 0.84 0.80 0.92 1.02 1.10 1.01 0.96 1.07 1.14 0.99 1.01 1.08 1.07 1.18 1.27 1.24 1.38 1.51 1.58 1.65 1.71 1.75
0.64 0.63 0.61 0.59 0.58 0.59 0.60 0.60 0.59 0.57 0.57 0.59 0.60 0.60 0.58 0.57 0.55 0.55 0.53 0.52 0.53 0.54 0.56 0.57 0.60 0.60 0.60 0.63 0.67 0.71 0.70 0.57 0.60 0.57 0.73 0.89 0.81 0.77 0.86 0.90 0.91 0.96 0.91 0.94 1.06 1.08 1.06 1.04 1.11 1.13 1.09 0.99 1.08 0.99 0.99 0.81 0.86 0.69 0.62 0.56 0.63 0.75 0.76 0.83 0.86 0.86 0.90 0.88 0.88 0.94 1.02 1.03 1.07 1.09 1.16 0.93 0.94 1.01 0.94 1.00 1.12 1.11 1.14 1.27 1.39 1.49 1.53 1.55
0.64 0.64 0.63 0.61 0.59 0.58 0.59 0.59 0.59 0.58 0.56 0.55 0.56 0.56 0.55 0.53 0.53 0.52 0.52 0.53 0.51 0.52 0.53 0.54 0.56 0.58 0.57 0.59 0.64 0.69 0.65 0.60 0.55 0.72 0.84 0.87 0.81 0.81 0.83 0.87 0.91 0.92 0.88 0.89 0.97 0.99 1.09 1.10 1.03 1.08 1.01 0.95 0.93 0.96 0.80 0.76 0.71 0.68 0.63 0.58 0.67 0.77 0.71 0.82 0.88 0.90 0.92 0.94 0.88 0.91 0.99 0.98 1.06 1.05 1.03 0.95 0.88 0.91 0.97 1.07 1.02 1.03 1.12 1.22 1.38 1.46 1.48 1.46
0.64 0.64 0.64 0.63 0.62 0.60 0.59 0.58 0.58 0.58 0.57 0.55 0.53 0.52 0.50 0.50 0.50 0.48 0.51 0.51 0.52 0.50 0.51 0.52 0.52 0.53 0.53 0.56 0.61 0.70 0.51 0.50 0.62 0.73 0.81 0.76 0.81 0.80 0.84 0.85 0.85 0.87 0.86 0.85 0.96 1.04 1.05 0.97 0.90 0.88 0.92 0.79 0.83 0.79 0.74 0.81 0.80 0.76 0.63 0.71 0.73 0.74 0.65 0.83 0.86 0.93 0.92 0.98 0.91 0.91 0.85 0.89 1.14 1.08 0.99 0.93 0.76 0.79 0.95 1.07 1.15 1.18 1.24 1.30 1.37 1.45 1.49 1.45
0.62 0.63 0.63 0.63 0.63 0.62 0.60 0.58 0.57 0.57 0.56 0.55 0.54 0.51 0.48 0.46 0.46 0.46 0.46 0.49 0.50 0.51 0.49 0.49 0.50 0.47 0.49 0.52 0.61 0.58 0.48 0.36 0.72 0.82 0.90 0.74 0.77 0.85 0.86 0.84 0.82 0.81 0.81 0.83 0.85 0.90 0.89 0.83 0.79 0.66 0.70 0.72 0.73 0.73 0.76 0.77 0.81 0.68 0.75 0.76 0.76 0.74 0.68 0.82 0.85 0.92 0.93 0.90 0.87 0.86 0.92 1.00 0.98 0.96 1.05 0.99 0.88 0.98 1.20 1.22 1.26 1.30 1.36 1.41 1.46 1.45 1.41 1.44
0.60 0.61 0.62 0.62 0.62 0.62 0.61 0.60 0.58 0.56 0.55 0.55 0.54 0.51 0.48 0.45 0.44 0.43 0.44 0.45 0.48 0.49 0.49 0.48 0.46 0.45 0.44 0.49 0.59 0.52 0.43 0.45 0.63 0.69 0.80 0.78 0.76 0.81 0.87 0.84 0.80 0.74 0.75 0.72 0.75 0.76 0.79 0.72 0.66 0.61 0.63 0.67 0.75 0.77 0.77 0.77 0.79 0.76 0.68 0.81 0.76 0.79 0.73 0.82 0.80 0.91 0.92 0.87 0.87 0.94 1.02 0.88 0.92 0.84 1.06 0.99 1.11 1.19 1.27 1.32 1.31 1.35 1.42 1.46 1.38 1.40 1.36 1.38
0.60 0.59 0.59 0.60 0.59 0.60 0.60 0.59 0.59 0.58 0.56 0.54 0.53 0.51 0.48 0.45 0.44 0.42 0.42 0.43 0.45 0.47 0.48 0.47 0.44 0.41 0.43 0.38 0.38 0.40 0.42 0.45 0.59 0.86 0.80 0.77 0.78 0.81 0.82 0.81 0.75 0.71 0.70 0.67 0.73 0.76 0.82 0.68 0.61 0.65 0.62 0.60 0.68 0.83 0.79 0.72 0.74 0.74 0.75 0.86 0.83 0.82 0.79 0.82 0.81 0.83 0.85 0.90 0.98 0.99 0.88 0.88 0.94 0.92 1.04 0.98 1.14 1.24 1.27 1.34 1.34 1.35 1.36 1.39 1.39 1.34 1.32 1.31
0.62 0.61 0.59 0.57 0.56 0.57 0.57 0.57 0.58 0.58 0.57 0.55 0.53 0.51 0.46 0.45 0.43 0.43 0.42 0.42 0.43 0.45 0.46 0.47 0.42 0.40 0.46 0.40 0.36 0.31 0.36 0.62 0.70 0.72 0.78 0.70 0.74 0.76 0.78 0.63 0.76 0.68 0.64 0.70 0.83 0.84 0.79 0.65 0.64 0.64 0.53 0.56 0.63 0.68 0.80 0.68 0.67 0.78 0.77 0.86 0.87 0.82 0.81 0.84 0.87 0.85 0.82 0.88 0.98 0.91 0.88 0.97 1.00 1.11 0.98 1.07 1.14 1.26 1.30 1.30 1.31 1.33 1.31 1.31 1.34 1.34 1.33 1.31
0.63 0.62 0.61 0.58 0.56 0.53 0.53 0.54 0.56 0.56 0.56 0.56 0.55 0.52 0.46 0.43 0.42 0.42 0.42 0.42 0.41 0.43 0.46 0.46 0.43 0.39 0.35 0.26 0.27 0.27 0.36 0.85 0.80 0.86 0.81 0.74 0.72 0.68 0.67 0.71 0.76 0.69 0.61 0.61 0.69 0.71 0.71 0.66 0.63 0.66 0.63 0.60 0.64 0.65 0.77 0.69 0.64 0.85 0.85 0.86 0.85 0.84 0.87 0.93 0.86 0.85 0.85 0.85 0.95 0.84 0.85 0.90 1.05 0.98 0.83 1.16 1.19 1.25 1.25 1.23 1.30 1.29 1.25 1.29 1.31 1.33 1.32 1.31
0.63 0.63 0.61 0.59 0.56 0.53 0.52 0.51 0.53 0.54 0.55 0.55 0.55 0.52 0.47 0.44 0.42 0.40 0.40 0.40 0.41 0.42 0.45 0.44 0.44 0.38 0.24 0.27 0.18 0.23 0.68 0.79 0.90 0.87 0.82 0.82 0.71 0.60 0.58 0.63 0.73 0.68 0.65 0.63 0.68 0.76 0.72 0.70 0.69 0.68 0.65 0.56 0.62 0.63 0.76 0.74 0.82 0.88 0.90 0.90 0.88 0.87 0.93 0.96 0.91 0.82 0.88 0.85 0.98 0.91 0.82 0.93 0.98 0.94 0.84 1.08 1.21 1.25 1.17 1.19 1.25 1.29 1.28 1.30 1.30 1.29 1.33 1.35
0.63 0.62 0.60 0.58 0.56 0.54 0.53 0.52 0.50 0.51 0.52 0.54 0.53 0.52 0.48 0.45 0.43 0.41 0.39 0.38 0.39 0.42 0.43 0.44 0.43 0.40 0.35 0.24 0.19 0.22 0.53 0.78 0.97 0.86 0.87 0.87 0.76 0.71 0.69 0.73 0.73 0.70 0.66 0.58 0.61 0.70 0.73 0.70 0.72 0.65 0.52 0.65 0.58 0.69 0.77 0.87 0.87 0.89 0.89 0.77 0.83 0.86 0.88 0.94 0.88 0.86 0.86 0.76 0.95 0.96 0.81 0.76 0.83 0.80 0.98 1.11 1.21 1.20 1.16 1.16 1.24 1.28 1.29 1.28 1.27 1.27 1.29 1.30
0.63 0.61 0.58 0.57 0.55 0.54 0.53 0.52 0.51 0.49 0.50 0.50 0.51 0.49 0.46 0.45 0.44 0.41 0.40 0.37 0.38 0.39 0.42 0.44 0.40 0.39 0.26 0.16 0.18 0.23 0.34 0.45 0.66 0.70 0.92 0.92 0.83 0.77 0.79 0.79 0.77 0.75 0.73 0.64 0.61 0.66 0.68 0.68 0.70 0.61 0.62 0.63 0.60 0.57 0.69 0.90 0.88 0.92 0.89 0.76 0.74 0.78 0.78 0.91 0.96 0.96 0.87 0.84 0.94 0.91 0.54 0.61 0.75 0.89 1.02 1.12 1.15 1.18 1.13 1.13 1.20 1.24 1.26 1.28 1.28 1.26 1.28 1.31
0.63 0.60 0.57 0.55 0.54 0.54 0.53 0.52 0.50 0.50 0.48 0.48 0.48 0.46 0.44 0.44 0.43 0.41 0.39 0.37 0.38 0.39 0.40 0.42 0.38 0.32 0.26 0.18 0.21 0.24 0.30 0.36 0.41 0.49 0.68 0.87 0.76 0.66 0.68 0.78 0.78 0.76 0.79 0.71 0.66 0.68 0.66 0.69 0.68 0.62 0.68 0.62 0.58 0.71 0.68 0.82 0.85 0.73 0.82 0.81 0.67 0.67 0.66 0.87 0.90 0.93 0.82 0.92 0.94 0.96 0.57 0.63 0.76 0.91 1.05 1.10 1.13 1.08 1.04 1.10 1.16 1.19 1.23 1.28 1.32 1.31 1.29 1.31
0.62 0.59 0.56 0.55 0.54 0.53 0.52 0.51 0.49 0.48 0.48 0.47 0.45 0.42 0.42 0.41 0.41 0.40 0.40 0.39 0.39 0.40 0.40 0.39 0.40 0.30 0.24 0.23 0.33 0.31 0.35 0.47 0.39 0.41 0.52 0.70 0.66 0.56 0.51 0.58 0.67 0.75 0.75 0.73 0.69 0.66 0.65 0.66 0.59 0.54 0.57 0.66 0.65 0.61 0.55 0.58 0.66 0.73 0.65 0.59 0.68 0.62 0.65 0.80 0.95 0.92 0.76 0.89 0.93 0.88 0.60 0.64 0.76 0.88 1.06 1.09 1.11 1.08 1.02 1.06 1.12 1.18 1.20 1.28 1.32 1.33 1.31 1.31
0.62 0.59 0.56 0.55 0.54 0.53 0.52 0.50 0.49 0.48 0.48 0.46 0.42 0.39 0.39 0.40 0.40 0.40 0.42 0.40 0.40 0.41 0.41 0.29 0.37 0.38 0.25 0.16 0.22 0.30 0.26 0.28 0.28 0.36 0.49 0.62 0.61 0.51 0.47 0.47 0.55 0.65 0.71 0.71 0.74 0.70 0.64 0.59 0.50 0.51 0.55 0.59 0.55 0.51 0.49 0.49 0.53 0.63 0.56 0.52 0.55 0.63 0.64 0.72 0.85 0.93 0.88 0.82 0.87 0.79 0.61 0.72 0.76 0.92 1.04 1.08 1.08 1.09 1.04 1.07 1.12 1.16 1.21 1.27 1.32 1.34 1.33 1.31
0.62 0.59 0.56 0.56 0.55 0.54 0.52 0.51 0.49 0.48 0.47 0.45 0.41 0.37 0.38 0.45 0.47 0.45 0.45 0.44 0.39 0.42 0.34 0.21 0.33 0.37 0.14 0.32 0.34 0.19 0.19 0.25 0.31 0.35 0.37 0.41 0.44 0.48 0.46 0.44 0.46 0.50 0.56 0.63 0.65 0.64 0.61 0.51 0.56 0.56 0.57 0.52 0.51 0.51 0.44 0.41 0.45 0.52 0.59 0.48 0.50 0.53 0.61 0.61 0.79 0.89 0.87 0.83 0.72 0.83 0.71 0.70 0.80 0.94 1.01 1.06 1.09 1.08 1.05 1.06 1.10 1.16 1.23 1.27 1.31 1.33 1.32 1.30
0.62 0.59 0.57 0.56 0.55 0.54 0.52 0.51 0.50 0.48 0.47 0.43 0.39 0.36 0.38 0.49 0.59 0.56 0.54 0.51 0.49 0.40 0.37 0.44 0.39 0.28 0.15 0.23 0.15 0.16 0.21 0.23 0.26 0.29 0.32 0.35 0.36 0.39 0.42 0.42 0.45 0.47 0.47 0.45 0.49 0.48 0.54 0.45 0.49 0.45 0.47 0.49 0.49 0.46 0.40 0.34 0.37 0.40 0.45 0.45 0.47 0.55 0.58 0.57 0.60 0.77 0.82 0.81 0.69 0.75 0.72 0.75 0.82 0.93 1.00 1.05 1.14 1.12 1.08 1.08 1.12 1.16 1.24 1.29 1.29 1.32 1.34 1.34
0.62 0.60 0.58 0.57 0.56 0.54 0.52 0.51 0.49 0.48 0.45 0.42 0.38 0.45 0.60 0.67 0.69 0.66 0.46 0.47 0.36 0.29 0.15 0.17 0.18 0.09 0.09 0.17 0.20 0.21 0.21 0.24 0.26 0.25 0.25 0.27 0.30 0.33 0.35 0.39 0.42 0.42 0.41 0.41 0.45 0.44 0.51 0.45 0.44 0.41 0.37 0.43 0.45 0.45 0.41 0.41 0.40 0.40 0.38 0.42 0.45 0.44 0.51 0.51 0.60 0.80 0.77 0.69 0.66 0.66 0.63 0.71 0.80 0.89 0.99 1.05 1.14 1.13 1.12 1.14 1.16 1.19 1.24 1.29 1.27 1.29 1.33 1.34
0.62 0.61 0.58 0.57 0.56 0.54 0.52 0.51 0.49 0.47 0.44 0.36 0.31 0.47 0.55 0.36 0.38 0.36 0.40 0.39 0.32 0.31 0.31 0.25 0.26 0.21 0.16 0.19 0.18 0.21 0.25 0.27 0.21 0.23 0.25 0.27 0.25 0.26 0.29 0.33 0.37 0.40 0.39 0.35 0.41 0.44 0.49 0.36 0.32 0.32 0.38 0.44 0.46 0.46 0.45 0.44 0.42 0.42 0.37 0.38 0.41 0.44 0.49 0.58 0.68 0.80 0.82 0.71 0.62 0.63 0.67 0.71 0.77 0.85 0.94 1.03 1.11 1.13 1.13 1.11 1.12 1.16 1.20 1.24 1.25 1.24 1.29 1.33
0.62 0.61 0.59 0.57 0.56 0.55 0.53 0.51 0.49 0.45 0.45 0.39 0.39 0.38 0.29 0.29 0.22 0.21 0.28 0.30 0.34 0.35 0.32 0.29 0.27 0.25 0.18 0.22 0.26 0.26 0.22 0.21 0.22 0.23 0.24 0.28 0.25 0.22 0.23 0.27 0.29 0.31 0.36 0.39 0.39 0.51 0.46 0.34 0.31 0.38 0.43 0.45 0.44 0.45 0.44 0.43 0.41 0.38 0.35 0.33 0.35 0.41 0.44 0.56 0.63 0.75 0.81 0.62 0.59 0.66 0.67 0.71 0.75 0.85 0.94 1.03 1.06 1.03 1.06 1.09 1.12 1.17 1.21 1.22 1.21 1.20 1.26 1.36
0.62 0.62 0.59 0.57 0.56 0.54 0.53 0.51 0.47 0.45 0.46 0.39 0.37 0.30 0.35 0.38 0.41 0.44 0.37 0.21 0.26 0.29 0.31 0.30 0.30 0.25 0.25 0.28 0.31 0.33 0.29 0.22 0.20 0.21 0.26 0.26 0.26 0.20 0.22 0.23 0.25 0.27 0.35 0.39 0.40 0.40 0.38 0.30 0.35 0.42 0.46 0.47 0.47 0.47 0.45 0.43 0.40 0.35 0.34 0.34 0.35 0.43 0.49 0.63 0.68 0.73 0.75 0.66 0.58 0.65 0.65 0.69 0.77 0.86 0.94 1.01 1.03 1.06 1.10 1.12 1.14 1.18 1.20 1.20 1.19 1.20 1.25 1.36
0.63 0.62 0.60 0.58 0.56 0.54 0.53 0.50 0.45 0.47 0.43 0.40 0.36 0.38 0.37 0.46 0.49 0.48 0.39 0.27 0.20 0.24 0.25 0.27 0.24 0.22 0.20 0.28 0.32 0.34 0.22 0.18 0.18 0.20 0.22 0.22 0.21 0.21 0.23 0.22 0.23 0.26 0.31 0.35 0.33 0.33 0.30 0.31 0.39 0.44 0.44 0.45 0.45 0.46 0.43 0.42 0.38 0.34 0.34 0.33 0.34 0.44 0.43 0.47 0.63 0.70 0.76 0.66 0.60 0.67 0.67 0.71 0.82 0.89 0.93 1.04 1.06 1.10 1.15 1.16 1.18 1.23 1.18 1.17 1.18 1.20 1.25 1.33
0.63 0.63 0.60 0.58 0.57 0.54 0.52 0.48 0.49 0.46 0.47 0.45 0.44 0.43 0.52 0.53 0.48 0.45 0.31 0.19 0.15 0.18 0.20 0.22 0.25 0.22 0.18 0.19 0.27 0.26 0.20 0.19 0.18 0.19 0.24 0.21 0.18 0.20 0.17 0.19 0.20 0.23 0.24 0.29 0.31 0.31 0.30 0.34 0.41 0.43 0.44 0.45 0.42 0.43 0.39 0.38 0.37 0.38 0.37 0.35 0.33 0.45 0.47 0.42 0.51 0.70 0.75 0.75 0.74 0.71 0.66 0.67 0.76 0.77 0.86 1.00 1.11 1.11 1.15 1.17 1.21 1.26 1.25 1.26 1.27 1.29 1.32 1.29
0.63 0.63 0.61 0.59 0.56 0.54 0.49 0.49 0.42 0.38 0.51 0.52 0.49 0.53 0.55 0.56 0.50 0.47 0.28 0.22 0.22 0.20 0.29 0.24 0.24 0.22 0.20 0.29 0.32 0.22 0.20 0.20 0.19 0.21 0.22 0.20 0.18 0.17 0.15 0.17 0.18 0.19 0.22 0.26 0.29 0.29 0.29 0.34 0.40 0.40 0.41 0.42 0.41 0.38 0.39 0.37 0.34 0.36 0.38 0.35 0.35 0.44 0.46 0.48 0.59 0.61 0.61 0.59 0.69 0.64 0.48 0.52 0.69 0.76 0.83 0.94 1.02 1.04 1.15 1.13 1.16 1.23 1.25 1.24 1.21 1.27 1.35 1.38
0.63 0.64 0.62 0.60 0.58 0.52 0.49 0.44 0.42 0.44 0.49 0.45 0.47 0.54 0.59 0.56 0.53 0.46 0.31 0.18 0.10 0.16 0.21 0.15 0.23 0.18 0.25 0.21 0.25 0.23 0.22 0.16 0.19 0.20 0.21 0.20 0.20 0.17 0.18 0.16 0.17 0.16 0.20 0.24 0.26 0.28 0.28 0.32 0.34 0.37 0.38 0.40 0.40 0.38 0.40 0.38 0.36 0.33 0.34 0.39 0.39 0.39 0.45 0.54 0.55 0.54 0.48 0.44 0.60 0.69 0.44 0.43 0.67 0.69 0.80 0.90 0.97 1.01 1.14 1.15 1.19 1.22 1.22 1.21 1.23 1.28 1.32 1.34
0.64 0.64 0.63 0.61 0.59 0.55 0.34 0.41 0.48 0.51 0.37 0.41 0.54 0.62 0.61 0.58 0.52 0.41 0.25 0.18 0.11 0.24 0.14 0.21 0.19 0.23 0.22 0.21 0.21 0.22 0.13 0.13 0.18 0.20 0.19 0.21 0.17 0.19 0.15 0.16 0.17 0.17 0.20 0.24 0.23 0.22 0.27 0.28 0.30 0.34 0.35 0.35 0.35 0.35 0.40 0.41 0.37 0.31 0.39 0.40 0.39 0.40 0.38 0.44 0.51 0.48 0.48 0.56 0.60 0.63 0.57 0.45 0.47 0.64 0.84 0.92 0.90 0.91 1.00 1.09 1.16 1.19 1.20 1.21 1.25 1.29 1.33 1.36
0.64 0.65 0.64 0.63 0.60 0.56 0.42 0.48 0.46 0.37 0.39 0.53 0.62 0.62 0.59 0.57 0.47 0.44 0.28 0.09 0.09 0.24 0.17 0.20 0.21 0.28 0.24 0.20 0.19 0.17 0.15 0.19 0.16 0.20 0.22 0.23 0.19 0.18 0.15 0.15 0.15 0.16 0.18 0.19 0.15 0.23 0.27 0.27 0.25 0.25 0.32 0.34 0.33 0.37 0.41 0.42 0.38 0.37 0.41 0.41 0.39 0.39 0.39 0.38 0.40 0.44 0.42 0.40 0.42 0.52 0.61 0.46 0.46 0.62 0.83 0.89 0.84 0.87 0.90 0.94 1.05 1.17 1.19 1.22 1.25 1.30 1.34 1.37
0.64 0.65 0.65 0.64 0.62 0.58 0.59 0.48 0.41 0.35 0.46 0.57 0.56 0.49 0.44 0.48 0.37 0.30 0.20 0.11 0.25 0.21 0.29 0.21 0.29 0.22 0.21 0.22 0.18 0.16 0.15 0.17 0.17 0.21 0.25 0.24 0.21 0.19 0.15 0.15 0.16 0.16 0.19 0.20 0.17 0.21 0.26 0.27 0.30 0.28 0.31 0.31 0.36 0.40 0.43 0.42 0.37 0.40 0.42 0.42 0.40 0.41 0.40 0.38 0.36 0.35 0.38 0.32 0.31 0.40 0.53 0.42 0.44 0.61 0.73 0.87 0.86 0.83 0.88 0.93 1.03 1.16 1.18 1.23 1.27 1.31 1.35 1.39
0.64 0.64 0.66 0.65 0.60 0.56 0.52 0.50 0.39 0.46 0.49 0.53 0.53 0.45 0.40 0.37 0.31 0.18 0.14 0.10 0.26 0.21 0.24 0.26 0.23 0.20 0.21 0.17 0.16 0.17 0.15 0.16 0.20 0.23 0.23 0.21 0.22 0.21 0.18 0.22 0.20 0.19 0.18 0.20 0.20 0.21 0.25 0.29 0.35 0.31 0.29 0.33 0.39 0.42 0.43 0.42 0.41 0.43 0.41 0.38 0.37 0.36 0.37 0.39 0.38 0.39 0.36 0.27 0.31 0.43 0.52 0.48 0.40 0.55 0.69 0.71 0.75 0.85 0.91 0.97 1.12 1.20 1.26 1.30 1.32 1.33 1.33 1.35
0.64 0.65 0.66 0.68 0.51 0.53 0.48 0.31 0.42 0.48 0.45 0.51 0.49 0.39 0.38 0.31 0.21 0.16 0.12 0.23 0.27 0.23 0.25 0.24 0.23 0.24 0.20 0.18 0.16 0.17 0.15 0.17 0.19 0.21 0.20 0.22 0.21 0.20 0.21 0.20 0.24 0.21 0.20 0.19 0.19 0.20 0.21 0.27 0.28 0.30 0.31 0.33 0.39 0.38 0.42 0.42 0.41 0.39 0.37 0.36 0.34 0.32 0.36 0.33 0.35 0.37 0.27 0.26 0.32 0.40 0.44 0.48 0.36 0.52 0.68 0.80 0.87 0.94 0.92 0.90 1.04 1.15 1.23 1.28 1.32 1.35 1.35 1.38
0.64 0.64 0.68 0.64 0.63 0.62 0.37 0.30 0.47 0.48 0.44 0.49 0.41 0.30 0.30 0.15 0.19 0.14 0.19 0.34 0.21 0.22 0.23 0.22 0.24 0.23 0.21 0.20 0.17 0.16 0.14 0.15 0.18 0.19 0.19 0.19 0.19 0.17 0.17 0.15 0.20 0.15 0.14 0.15 0.15 0.19 0.18 0.21 0.29 0.29 0.32 0.33 0.35 0.34 0.37 0.38 0.39 0.37 0.36 0.34 0.29 0.28 0.28 0.24 0.27 0.26 0.23 0.20 0.32 0.42 0.44 0.42 0.43 0.56 0.63 0.76 0.86 0.89 0.95 1.00 1.07 1.13 1.18 1.25 1.31 1.34 1.36 1.41
0.64 0.64 0.68 0.67 0.64 0.52 0.46 0.43 0.43 0.42 0.45 0.45 0.32 0.33 0.22 0.17 0.09 0.20 0.26 0.29 0.24 0.29 0.26 0.28 0.25 0.23 0.21 0.19 0.17 0.17 0.17 0.14 0.19 0.19 0.19 0.20 0.18 0.19 0.20 0.19 0.21 0.19 0.14 0.16 0.14 0.16 0.17 0.20 0.28 0.30 0.31 0.35 0.35 0.29 0.30 0.31 0.35 0.35 0.32 0.32 0.28 0.24 0.22 0.18 0.19 0.25 0.23 0.28 0.38 0.39 0.45 0.39 0.54 0.60 0.79 0.78 0.94 0.97 0.99 1.08 1.14 1.12 1.14 1.22 1.29 1.34 1.37 1.41
0.63 0.65 0.60 0.66 0.62 0.55 0.50 0.51 0.46 0.45 0.38 0.38 0.29 0.22 0.22 0.14 0.16 0.36 0.31 0.29 0.30 0.36 0.34 0.29 0.24 0.24 0.22 0.17 0.17 0.16 0.14 0.16 0.18 0.19 0.19 0.18 0.18 0.17 0.20 0.22 0.22 0.20 0.17 0.19 0.15 0.15 0.13 0.13 0.17 0.24 0.23 0.33 0.32 0.31 0.33 0.33 0.33 0.36 0.37 0.34 0.31 0.27 0.21 0.17 0.20 0.19 0.21 0.24 0.34 0.47 0.37 0.43 0.41 0.52 0.92 0.95 1.00 1.02 1.10 1.15 1.19 1.20 1.25 1.31 1.34 1.37 1.39 1.39
0.64 0.63 0.65 0.63 0.59 0.54 0.50 0.50 0.48 0.45 0.36 0.31 0.23 0.19 0.12 0.13 0.25 0.29 0.31 0.32 0.33 0.33 0.30 0.29 0.24 0.21 0.19 0.18 0.18 0.17 0.15 0.15 0.18 0.19 0.18 0.17 0.17 0.17 0.18 0.19 0.21 0.21 0.21 0.15 0.18 0.17 0.15 0.15 0.19 0.24 0.27 0.34 0.32 0.36 0.34 0.32 0.29 0.31 0.36 0.36 0.30 0.26 0.28 0.19 0.26 0.25 0.25 0.26 0.29 0.47 0.44 0.53 0.56 0.95 1.05 1.09 1.08 1.07 1.10 1.11 1.15 1.21 1.28 1.30 1.29 1.30 1.34 1.36
0.59 0.59 0.62 0.52 0.49 0.47 0.53 0.53 0.48 0.43 0.35 0.24 0.17 0.14 0.12 0.19 0.26 0.34 0.31 0.36 0.35 0.31 0.29 0.26 0.25 0.21 0.19 0.19 0.19 0.16 0.18 0.15 0.18 0.17 0.18 0.18 0.19 0.17 0.19 0.20 0.20 0.21 0.20 0.15 0.19 0.15 0.16 0.14 0.17 0.25 0.30 0.32 0.33 0.37 0.36 0.36 0.24 0.32 0.29 0.23 0.24 0.30 0.27 0.25 0.26 0.28 0.28 0.26 0.27 0.56 0.59 0.67 0.90 0.93 1.02 1.05 1.01 1.04 1.07 1.10 1.16 1.20 1.24 1.27 1.25 1.29 1.31 1.32
0.52 0.56 0.44 0.50 0.48 0.54 0.64 0.60 0.47 0.38 0.32 0.24 0.15 0.11 0.17 0.20 0.37 0.36 0.37 0.35 0.35 0.34 0.29 0.23 0.26 0.23 0.21 0.20 0.18 0.16 0.17 0.16 0.17 0.17 0.16 0.18 0.17 0.18 0.18 0.19 0.21 0.21 0.21 0.19 0.19 0.20 0.16 0.17 0.20 0.23 0.25 0.30 0.34 0.35 0.37 0.37 0.35 0.31 0.26 0.28 0.31 0.33 0.31 0.26 0.21 0.25 0.23 0.21 0.35 0.51 0.45 0.55 0.52 0.47 0.98 0.97 0.91 0.99 1.02 1.07 1.15 1.20 1.24 1.23 1.27 1.31 1.34 1.35
0.53 0.50 0.46 0.41 0.41 0.59 0.70 0.58 0.41 0.36 0.28 0.20 0.14 0.17 0.24 0.23 0.35 0.36 0.40 0.35 0.31 0.31 0.29 0.28 0.25 0.25 0.21 0.24 0.21 0.18 0.19 0.16 0.16 0.16 0.15 0.18 0.15 0.20 0.18 0.18 0.20 0.20 0.22 0.24 0.18 0.22 0.21 0.14 0.20 0.24 0.27 0.28 0.29 0.28 0.27 0.32 0.37 0.32 0.29 0.36 0.23 0.23 0.21 0.27 0.24 0.20 0.21 0.21 0.30 0.49 0.60 0.59 0.57 0.61 0.87 0.88 0.88 0.93 1.00 1.07 1.11 1.15 1.20 1.24 1.27 1.33 1.39 1.39
0.57 0.45 0.34 0.39 0.49 0.58 0.61 0.55 0.38 0.30 0.24 0.16 0.16 0.13 0.17 0.24 0.29 0.31 0.33 0.32 0.33 0.29 0.28 0.28 0.23 0.22 0.24 0.23 0.25 0.27 0.21 0.17 0.17 0.16 0.14 0.17 0.14 0.20 0.19 0.19 0.19 0.21 0.22 0.24 0.21 0.23 0.23 0.15 0.18 0.24 0.25 0.27 0.27 0.26 0.21 0.24 0.33 0.37 0.37 0.32 0.34 0.26 0.23 0.22 0.23 0.27 0.23 0.20 0.27 0.45 0.53 0.48 0.73 0.73 0.89 0.92 0.95 0.98 1.04 1.09 1.11 1.19 1.20 1.24 1.27 1.29 1.33 1.35
0.48 0.33 0.34 0.53 0.61 0.64 0.66 0.48 0.34 0.28 0.21 0.14 0.17 0.15 0.20 0.22 0.30 0.30 0.33 0.35 0.31 0.28 0.25 0.25 0.24 0.23 0.24 0.26 0.28 0.26 0.27 0.21 0.18 0.17 0.15 0.19 0.17 0.22 0.20 0.21 0.20 0.21 0.22 0.23 0.21 0.24 0.21 0.22 0.15 0.23 0.27 0.25 0.22 0.24 0.23 0.25 0.26 0.31 0.31 0.30 0.31 0.29 0.30 0.26 0.28 0.24 0.22 0.20 0.22 0.34 0.36 0.55 0.78 0.99 0.93 0.99 1.03 1.06 1.08 1.12 1.15 1.20 1.24 1.29 1.31 1.31 1.35 1.37
0.53 0.40 0.45 0.60 0.66 0.70 0.59 0.39 0.26 0.21 0.18 0.22 0.21 0.19 0.20 0.25 0.31 0.30 0.35 0.37 0.34 0.31 0.27 0.26 0.25 0.23 0.25 0.26 0.28 0.30 0.28 0.27 0.19 0.17 0.18 0.19 0.20 0.18 0.20 0.21 0.21 0.20 0.21 0.21 0.21 0.23 0.21 0.20 0.17 0.21 0.22 0.21 0.23 0.26 0.26 0.27 0.31 0.30 0.31 0.29 0.29 0.28 0.25 0.20 0.19 0.25 0.22 0.21 0.25 0.26 0.32 0.55 0.85 1.08 1.04 1.06 1.07 1.07 1.14 1.16 1.15 1.20 1.27 1.30 1.32 1.36 1.39 1.35
0.39 0.29 0.43 0.70 0.76 0.66 0.46 0.29 0.25 0.26 0.21 0.17 0.16 0.18 0.17 0.28 0.31 0.33 0.32 0.34 0.32 0.28 0.30 0.28 0.26 0.25 0.26 0.28 0.30 0.30 0.28 0.25 0.27 0.25 0.23 0.19 0.21 0.21 0.22 0.22 0.20 0.21 0.19 0.19 0.20 0.25 0.24 0.23 0.20 0.20 0.21 0.22 0.24 0.26 0.27 0.25 0.26 0.32 0.33 0.30 0.31 0.31 0.28 0.23 0.18 0.20 0.33 0.39 0.43 0.45 0.39 0.55 1.00 1.13 1.11 1.07 1.08 1.11 1.16 1.20 1.18 1.23 1.27 1.30 1.33 1.35 1.37 1.40
0.37 0.40 0.62 0.72 0.74 0.60 0.41 0.30 0.30 0.24 0.19 0.21 0.23 0.20 0.21 0.25 0.31 0.34 0.31 0.31 0.29 0.29 0.28 0.26 0.25 0.24 0.27 0.29 0.31 0.32 0.29 0.27 0.29 0.28 0.28 0.23 0.21 0.21 0.22 0.21 0.21 0.20 0.20 0.21 0.21 0.25 0.27 0.21 0.18 0.20 0.23 0.24 0.26 0.28 0.29 0.30 0.31 0.28 0.28 0.31 0.31 0.28 0.28 0.26 0.24 0.29 0.29 0.43 0.37 0.43 0.41 0.65 1.03 1.19 1.16 1.14 1.15 1.18 1.24 1.26 1.23 1.23 1.26 1.28 1.28 1.29 1.33 1.40
0.42 0.47 0.52 0.65 0.68 0.58 0.39 0.24 0.22 0.22 0.21 0.22 0.22 0.22 0.25 0.28 0.32 0.32 0.31 0.29 0.27 0.27 0.26 0.25 0.24 0.25 0.27 0.31 0.31 0.30 0.30 0.27 0.30 0.30 0.26 0.25 0.23 0.24 0.23 0.23 0.21 0.20 0.18 0.23 0.21 0.29 0.21 0.22 0.17 0.16 0.17 0.19 0.22 0.26 0.29 0.32 0.31 0.34 0.29 0.31 0.31 0.36 0.36 0.37 0.37 0.44 0.35 0.45 0.44 0.38 0.31 0.53 0.93 1.18 1.20 1.16 1.17 1.19 1.21 1.27 1.29 1.21 1.24 1.24 1.24 1.29 1.35 1.40
0.44 0.47 0.50 0.56 0.61 0.53 0.34 0.34 0.28 0.25 0.24 0.24 0.24 0.22 0.23 0.27 0.32 0.31 0.31 0.29 0.27 0.24 0.24 0.22 0.23 0.26 0.28 0.30 0.30 0.31 0.32 0.31 0.27 0.32 0.31 0.27 0.28 0.30 0.27 0.25 0.23 0.22 0.22 0.24 0.22 0.24 0.18 0.18 0.17 0.15 0.15 0.16 0.17 0.19 0.23 0.25 0.26 0.42 0.45 0.40 0.43 0.41 0.43 0.40 0.33 0.37 0.34 0.51 0.53 0.44 0.47 0.72 0.94 1.08 1.10 1.11 1.13 1.16 1.22 1.23 1.27 1.27 1.22 1.19 1.22 1.26 1.34 1.39
0.39 0.28 0.44 0.51 0.53 0.50 0.45 0.45 0.37 0.31 0.27 0.26 0.22 0.24 0.26 0.26 0.31 0.34 0.31 0.26 0.24 0.23 0.23 0.23 0.23 0.25 0.28 0.30 0.30 0.32 0.35 0.38 0.33 0.31 0.29 0.27 0.30 0.31 0.31 0.28 0.23 0.22 0.29 0.27 0.23 0.21 0.20 0.21 0.20 0.19 0.18 0.18 0.20 0.22 0.26 0.29 0.30 0.41 0.40 0.44 0.46 0.48 0.48 0.45 0.43 0.39 0.38 0.49 0.47 0.52 0.54 0.65 0.77 0.90 0.97 1.03 1.08 1.09 1.10 1.14 1.16 1.16 1.20 1.21 1.22 1.28 1.34 1.38
0.46 0.37 0.41 0.39 0.46 0.46 0.43 0.43 0.37 0.35 0.28 0.30 0.23 0.26 0.26 0.28 0.31 0.30 0.33 0.25 0.25 0.22 0.21 0.21 0.21 0.20 0.24 0.28 0.29 0.31 0.36 0.35 0.36 0.32 0.31 0.36 0.39 0.39 0.33 0.27 0.33 0.32 0.38 0.30 0.31 0.26 0.24 0.19 0.21 0.23 0.20 0.20 0.23 0.25 0.27 0.30 0.34 0.40 0.38 0.45 0.45 0.43 0.45 0.42 0.38 0.41 0.56 0.48 0.42 0.61 0.70 0.62 0.72 0.88 0.95 0.99 1.06 1.08 1.11 1.13 1.15 1.17 1.15 1.17 1.25 1.31 1.36 1.36
0.31 0.43 0.54 0.59 0.45 0.40 0.39 0.40 0.43 0.32 0.32 0.32 0.29 0.29 0.28 0.28 0.27 0.26 0.28 0.25 0.25 0.24 0.18 0.18 0.19 0.20 0.23 0.27 0.31 0.32 0.36 0.37 0.37 0.36 0.40 0.41 0.37 0.40 0.38 0.28 0.25 0.32 0.28 0.29 0.33 0.25 0.25 0.22 0.25 0.23 0.25 0.25 0.26 0.29 0.33 0.44 0.44 0.43 0.44 0.46 0.45 0.46 0.44 0.43 0.48 0.56 0.57 0.47 0.44 0.64 0.76 0.70 0.76 0.87 0.96 0.99 1.04 1.05 1.11 1.13 1.16 1.20 1.23 1.26 1.28 1.27 1.27 1.29
0.46 0.55 0.59 0.66 0.51 0.57 0.57 0.56 0.47 0.36 0.36 0.32 0.31 0.30 0.28 0.28 0.25 0.27 0.28 0.30 0.29 0.24 0.22 0.17 0.17 0.19 0.22 0.28 0.33 0.35 0.38 0.35 0.36 0.40 0.41 0.40 0.41 0.39 0.39 0.37 0.35 0.37 0.29 0.27 0.29 0.31 0.27 0.24 0.25 0.25 0.26 0.26 0.36 0.36 0.44 0.47 0.45 0.45 0.49 0.51 0.53 0.49 0.50 0.52 0.57 0.62 0.58 0.55 0.63 0.70 0.76 0.77 0.87 0.95 1.04 1.07 1.13 1.13 1.16 1.22 1.24 1.21 1.19 1.22 1.22 1.24 1.23 1.24
0.45 0.51 0.55 0.73 0.69 0.62 0.61 0.60 0.58 0.52 0.41 0.41 0.32 0.31 0.29 0.28 0.27 0.30 0.33 0.34 0.29 0.28 0.24 0.20 0.17 0.20 0.23 0.29 0.36 0.37 0.45 0.45 0.44 0.40 0.44 0.42 0.41 0.43 0.41 0.41 0.40 0.41 0.37 0.32 0.29 0.35 0.26 0.28 0.25 0.28 0.25 0.26 0.45 0.47 0.45 0.53 0.46 0.48 0.55 0.56 0.56 0.56 0.54 0.55 0.59 0.66 0.69 0.71 0.74 0.73 0.73 0.74 0.97 1.11 1.10 1.17 1.19 1.22 1.21 1.16 1.14 1.15 1.17 1.16 1.16 1.17 1.19 1.20
0.62 0.78 0.87 0.71 0.56 0.58 0.62 0.63 0.55 0.49 0.37 0.35 0.30 0.31 0.30 0.29 0.31 0.35 0.35 0.37 0.34 0.33 0.31 0.24 0.22 0.21 0.35 0.34 0.35 0.42 0.48 0.48 0.48 0.46 0.47 0.45 0.40 0.48 0.43 0.44 0.46 0.44 0.41 0.39 0.34 0.33 0.28 0.28 0.28 0.26 0.23 0.23 0.45 0.42 0.51 0.52 0.54 0.53 0.55 0.58 0.57 0.54 0.51 0.57 0.52 0.61 0.57 0.62 0.71 0.71 0.67 0.72 0.95 1.11 1.15 1.16 1.16 1.13 1.10 1.11 1.12 1.14 1.16 1.17 1.13 1.14 1.15 1.19
0.83 1.00 1.04 0.93 0.60 0.67 0.63 0.65 0.62 0.49 0.42 0.53 0.46 0.52 0.45 0.41 0.38 0.37 0.34 0.37 0.41 0.44 0.49 0.41 0.32 0.35 0.42 0.39 0.38 0.45 0.50 0.53 0.51 0.49 0.50 0.52 0.52 0.52 0.49 0.49 0.49 0.47 0.45 0.41 0.37 0.30 0.29 0.28 0.23 0.23 0.21 0.22 0.47 0.43 0.46 0.49 0.46 0.43 0.48 0.55 0.57 0.58 0.57 0.61 0.67 0.71 0.69 0.70 0.67 0.63 0.67 0.85 0.95 1.04 0.99 1.05 1.09 1.11 1.12 1.11 1.11 1.15 1.19 1.18 1.15 1.15 1.18 1.23
Wind_Speed
7 7 7 8 8 8 7 7 7 8 8 8 8 8 8 9 9 9 9 9 9 8 8 7 7 6 5 4 4 3 2 1 1 1 2 3 5 5 6 6 7 8 7 7 7 7 6 6 6 6 5 5 5 4 5 6 8 10 12 14 14 14 15 15 15 15 16 16 16 15 15 16 16 16 16 16 16 16 16 15 13 12 11 9 8 7 6 6
7 8 8 8 8 9 8 8 8 8 8 9 9 9 9 9 10 10 10 10 10 10 9 8 8 7 7 6 5 4 2 1 1 1 2 3 4 5 6 6 8 8 8 8 7 6 6 7 7 6 6 5 4 4 6 7 8 9 10 13 13 12 14 15 16 16 16 16 16 16 15 16 16 15 15 15 15 16 16 14 14 13 12 10 8 8 8 7
8 8 8 9 9 9 9 9 9 9 9 9 10 10 10 10 10 11 11 11 11 11 10 10 9 9 8 7 6 5 3 2 2 2 3 4 5 5 5 6 7 7 7 7 6 6 7 8 8 7 6 5 3 4 7 9 8 8 10 12 11 12 14 15 15 15 15 16 16 16 15 15 15 15 15 15 15 15 14 13 13 13 11 10 8 8 8 7
9 9 9 9 10 10 10 10 10 10 10 10 10 10 11 11 11 11 12 12 12 12 12 11 10 10 9 9 8 6 5 3 3 4 4 4 4 4 4 5 5 5 5 6 6 7 7 8 7 6 5 4 3 5 7 8 8 8 10 10 9 11 14 14 14 14 15 16 16 15 15 16 15 15 15 15 16 14 13 12 12 12 11 10 9 8 8 7
10 10 10 10 10 10 11 11 11 11 11 11 10 11 11 12 12 12 12 13 13 13 13 12 12 11 11 10 9 8 6 5 5 5 5 4 4 4 3 3 4 3 2 4 6 6 6 7 7 6 5 3 4 6 7 8 8 9 9 10 10 12 14 13 14 14 14 15 16 15 15 15 15 15 15 14 14 13 12 12 12 12 11 10 10 9 9 8
11 11 11 11 11 11 11 11 12 12 12 12 12 11 11 12 12 12 12 13 13 14 14 13 13 12 12 12 11 10 8 7 7 6 5 5 4 3 3 2 2 1 0 3 5 5 6 7 7 6 6 5 4 6 8 8 9 9 9 10 11 12 13 13 13 13 13 14 15 14 15 15 15 15 15 15 14 14 14 14 13 13 12 11 10 10 10 9
11 11 12 12 12 12 12 12 12 13 13 13 13 13 12 12 12 12 13 13 13 14 14 14 14 14 13 12 12 11 10 10 9 7 7 6 5 4 3 2 1 1 0 3 4 4 6 7 7 6 7 8 5 6 8 8 10 10 9 10 11 12 12 12 13 13 13 14 14 14 15 15 15 15 15 15 15 15 15 14 14 14 13 13 12 11 10 10
12 12 12 12 13 13 13 13 13 13 13 14 14 14 13 13 13 13 13 13 13 13 14 14 14 14 13 13 13 12 12 13 11 8 8 7 6 5 4 2 1 1 0 2 3 3 4 6 8 7 7 8 6 6 8 9 9 9 8 10 11 12 12 12 12 12 13 13 13 15 14 13 14 14 14 14 14 14 14 14 14 14 14 13 12 11 10 10
12 13 13 13 13 14 14 14 14 14 14 14 14 14 14 14 14 14 14 14 14 13 14 14 14 15 14 14 13 13 14 14 11 10 9 8 7 6 5 3 2 1 1 2 2 2 3 4 6 6 5 5 5 4 7 7 6 6 8 9 10 11 11 12 12 12 13 12 13 14 13 12 12 13 13 13 12 12 13 13 13 13 13 12 12 11 11 11
13 13 13 14 14 14 14 15 15 14 14 14 14 14 14 15 15 15 15 14 14 14 14 14 14 14 14 15 14 14 15 14 13 12 10 9 8 7 6 5 3 2 2 2 2 2 2 3 4 5 5 5 5 2 4 4 4 6 8 8 9 9 9 10 12 12 12 11 12 12 12 11 10 11 12 10 11 11 11 11 11 12 12 12 11 11 11 11
14 14 14 14 14 14 15 15 15 15 15 15 15 14 14 15 15 15 15 15 15 15 14 14 14 13 14 15 15 16 16 15 14 14 12 11 10 9 8 7 5 3 2 2 2 1 0 1 3 5 5 6 6 3 2 4 6 8 8 8 8 8 7 8 10 11 11 11 11 11 11 10 9 10 10 9 10 10 10 10 10 11 11 11 11 11 11 11
14 14 15 15 15 15 15 15 15 16 16 16 15 15 15 15 15 15 15 15 15 15 15 14 14 13 14 15 17 18 17 16 16 15 14 13 11 11 10 8 7 5 4 2 2 1 1 1 3 4 3 4 5 5 3 4 7 7 7 7 6 7 6 6 7 8 10 10 9 11 12 10 9 9 8 8 8 9 10 10 10 10 10 11 11 11 11 11
14 15 15 15 15 15 15 15 16 16 16 16 16 16 16 15 15 15 15 15 15 15 16 15 14 14 14 15 18 19 19 19 18 18 17 15 13 12 11 10 9 7 5 4 3 3 2 2 1 1 1 3 4 4 3 3 5 4 4 5 5 6 4 3 5 6 8 8 6 9 11 9 8 8 7 7 7 7 8 9 9 10 10 10 11 11 11 11
14 15 15 15 15 15 15 15 16 16 16 16 16 16 16 16 15 15 15 14 14 15 15 15 15 14 14 15 17 19 20 20 20 20 19 17 15 13 12 11 10 9 8 6 5 5 4 3 2 1 0 2 3 3 3 2 2 2 2 4 3 3 2 2 3 4 7 6 5 9 10 7 7 7 6 6 6 7 7 7 8 9 9 10 10 11 11 11
14 14 14 15 15 15 15 15 15 15 16 16 16 16 16 16 16 15 15 14 14 14 15 15 15 14 14 15 17 17 18 19 20 21 20 20 18 15 14 13 12 11 10 9 8 6 6 5 3 3 2 1 1 2 2 2 3 2 1 2 3 2 3 3 3 1 4 4 5 9 8 7 7 5 5 5 5 6 6 6 6 7 8 9 9 10 10 10
14 14 14 14 14 15 15 15 15 15 15 15 16 16 16 16 16 15 15 14 14 14 14 14 14 14 14 15 15 16 17 17 18 20 20 21 20 17 16 14 14 13 13 12 10 9 8 6 5 5 5 3 1 1 3 3 3 3 2 3 3 2 3 4 4 3 2 4 5 7 7 7 7 4 4 5 5 5 6 5 5 5 6 8 8 9 9 10
14 14 14 14 14 14 14 14 14 14 14 15 15 16 16 16 15 15 15 14 14 13 13 13 14 14 15 14 14 15 17 17 18 19 20 21 21 20 18 16 15 14 13 13 12 11 9 7 6 5 4 3 1 1 4 4 4 4 4 4 4 3 3 4 4 4 2 3 5 6 6 6 6 4 3 3 3 4 5 5 5 5 6 7 7 7 8 9
13 14 13 14 14 14 14 14 14 14 14 14 15 15 15 14 14 13 13 12 12 12 13 13 13 13 14 14 14 14 15 16 18 19 21 21 21 21 19 18 16 14 13 12 12 12 10 9 7 5 4 3 1 1 4 5 6 6 6 6 6 4 4 5 4 3 2 1 3 4 5 6 6 4 2 2 2 3 5 5 5 5 6 7 7 7 8 9
13 13 13 13 13 13 13 13 13 13 13 13 14 13 12 11 11 11 11 11 12 12 12 13 14 13 13 14 14 13 13 15 17 18 20 20 20 20 20 19 17 15 13 12 12 11 11 10 8 8 7 5 4 4 6 9 9 9 9 7 6 5 5 6 5 3 3 1 3 3 4 5 4 3 1 1 2 3 4 4 5 5 6 7 7 7 7 8
13 13 13 13 13 13 13 13 13 13 12 12 11 10 10 10 10 11 11 12 13 14 14 15 15 15 16 14 13 13 13 13 16 18 19 19 19 20 19 18 18 17 15 13 13 12 11 10 10 10 9 8 8 7 8 10 10 9 8 5 4 5 7 7 5 4 3 1 3 3 4 4 4 3 1 1 2 3 4 3 3 5 5 6 6 6 7 7
13 13 13 13 13 13 12 12 12 12 11 11 10 9 9 10 10 11 12 14 15 15 16 16 16 17 18 16 14 13 13 12 14 16 17 17 17 18 18 18 17 17 16 16 15 12 11 11 12 11 10 10 8 8 8 9 9 8 5 3 3 5 6 5 5 6 4 2 4 3 3 3 4 3 1 1 2 3 3 2 2 4 5 4 5 6 6 7
13 13 13 13 13 13 12 12 12 11 10 9 9 8 10 10 10 11 12 13 15 16 16 17 16 17 18 18 17 15 13 13 13 14 16 15 15 17 18 17 17 17 16 16 15 14 13 13 14 12 10 9 8 8 9 8 8 6 3 3 5 5 4 3 5 6 4 3 4 3 2 3 5 5 3 2 3 3 2 2 2 4 4 3 4 5 5 6
13 13 13 13 13 12 12 12 12 11 9 9 9 9 10 11 11 11 12 13 15 16 16 16 16 16 18 18 16 15 14 14 13 14 15 15 15 17 17 17 17 17 16 16 17 16 15 15 15 13 12 10 10 10 9 7 6 4 3 4 6 4 2 3 6 6 4 4 4 2 3 5 5 6 5 3 2 3 2 2 2 3 3 2 2 4 4 4
13 13 13 13 13 12 12 12 11 10 9 9 9 9 10 11 10 11 11 12 13 14 14 15 15 16 18 17 15 14 14 14 14 14 14 15 14 15 16 17 17 17 17 17 18 18 17 17 16 14 13 11 10 10 9 7 7 6 6 6 5 5 5 4 4 4 5 6 3 1 3 6 5 4 4 4 3 3 1 2 2 2 1 1 2 4 4 4
13 13 13 13 12 12 12 11 10 9 10 9 9 9 9 9 10 10 9 10 12 13 13 13 14 15 18 18 16 15 13 13 14 14 14 15 14 13 14 16 16 17 18 18 18 18 18 18 18 16 14 12 10 10 9 8 8 7 7 6 4 5 7 5 2 4 5 7 5 3 3 6 7 5 4 4 3 4 2 1 2 1 1 2 3 4 4 5
13 13 13 12 12 13 12 10 10 10 10 9 9 9 9 9 9 9 8 8 10 11 11 11 12 13 16 18 17 15 13 13 15 15 15 15 15 13 12 13 15 17 18 17 17 17 17 18 18 17 15 13 12 11 10 8 7 8 6 5 4 4 4 4 5 5 6 7 7 5 3 6 7 6 5 4 3 3 3 1 1 1 2 3 3 3 4 4
13 13 13 12 12 11 10 10 10 10 9 9 9 9 9 9 9 8 7 6 8 9 9 9 10 11 13 16 17 15 12 12 13 15 16 16 15 14 13 12 13 15 16 16 17 17 17 17 18 18 17 15 13 11 10 8 8 8 7 5 4 4 3 3 7 7 7 6 6 7 5 6 7 7 6 5 3 4 3 2 3 3 3 3 3 3 4 4
13 13 12 12 12 11 10 11 11 10 10 10 10 10 10 10 8 6 5 6 7 7 7 8 9 9 11 14 17 16 14 12 10 12 14 16 15 14 14 14 13 14 15 15 18 18 16 16 17 18 17 15 14 12 9 8 9 10 9 6 5 5 6 5 5 7 7 5 6 9 7 7 8 8 5 5 4 4 4 4 4 3 3 3 3 3 4 5
13 13 12 12 12 11 10 11 11 11 11 11 10 10 9 9 7 6 5 6 6 6 6 7 8 9 9 11 14 16 15 13 11 11 12 14 16 14 13 14 13 13 14 15 17 18 17 17 16 16 17 15 14 13 10 9 10 11 9 9 8 8 7 5 4 6 7 6 7 10 8 7 10 9 5 5 6 6 6 6 5 3 3 3 3 4 5 5
14 13 13 12 12 11 11 11 11 11 11 11 11 10 9 7 6 5 5 6 6 6 6 6 8 8 9 9 11 13 14 13 13 12 11 12 15 15 14 13 12 11 13 14 16 18 18 18 17 16 17 16 14 14 12 11 12 11 9 10 10 10 9 7 6 5 6 7 9 10 9 8 9 8 6 6 7 6 6 7 5 4 4 4 4 5 5 6
14 14 13 13 12 11 11 11 11 10 10 10 10 9 8 7 6 6 6 6 5 5 6 7 8 8 8 9 10 12 13 12 12 12 12 11 13 15 14 13 12 11 12 13 15 16 17 18 18 17 18 17 16 15 13 12 11 9 8 9 9 9 8 8 8 6 5 8 9 8 6 6 7 8 8 7 6 5 5 5 4 4 5 5 5 6 6 6
14 14 14 13 13 12 12 11 10 10 10 9 9 8 7 6 7 7 7 5 4 4 5 7 8 8 9 9 9 11 12 12 12 12 12 11 11 14 15 14 13 12 12 13 14 14 16 18 17 17 18 18 16 15 14 12 10 9 9 7 6 7 7 7 9 7 6 8 8 5 4 5 7 8 7 7 7 5 5 4 3 3 4 5 5 5 6 6
15 15 14 14 14 13 13 12 12 11 10 9 8 7 7 7 8 9 8 6 6 6 5 6 8 8 8 8 8 10 11 12 12 12 12 11 11 13 14 14 14 12 12 13 14 14 14 16 16 15 16 17 16 15 14 13 11 10 11 8 6 5 5 6 7 7 7 8 8 6 5 6 7 7 7 7 7 6 4 3 3 3 4 4 5 5 5 6
15 15 14 13 14 14 13 13 12 11 10 9 8 8 8 8 8 9 8 7 7 7 6 7 9 8 8 7 7 9 11 12 11 11 11 10 11 13 13 14 14 12 11 11 12 14 14 15 16 15 15 16 16 16 15 13 12 12 12 11 10 8 6 7 7 7 8 8 8 7 6 7 7 7 8 7 5 3 1 2 3 3 3 4 5 6 6 6
15 14 13 13 13 14 14 13 12 11 10 9 8 9 10 11 9 8 8 7 6 6 7 7 9 8 8 7 7 8 10 11 11 10 11 11 11 12 13 13 14 12 11 11 12 12 13 15 16 16 15 14 15 15 13 10 11 12 12 12 13 12 10 10 9 9 10 9 8 7 6 7 7 7 8 6 4 3 2 2 3 3 3 4 5 6 6 7
14 13 13 13 13 13 12 13 12 11 11 9 9 11 13 13 11 9 7 5 5 4 5 5 7 7 7 7 7 9 9 9 11 10 11 12 12 12 13 13 13 13 12 12 11 11 12 13 14 15 15 14 14 13 12 11 11 9 10 13 15 14 12 12 12 13 12 9 9 7 5 6 6 6 8 7 4 4 4 3 2 3 3 4 5 6 6 7
12 12 12 13 13 12 12 12 12 11 10 9 10 12 14 14 12 10 7 5 5 5 3 4 6 6 6 5 6 8 8 7 10 10 11 12 11 12 13 12 13 14 14 13 12 11 10 11 12 13 14 13 13 14 14 15 14 10 9 10 10 10 11 11 11 10 9 8 9 7 5 6 7 6 7 8 5 6 6 4 3 3 4 5 6 7 8 8
12 12 12 13 13 13 11 11 11 11 9 9 11 13 14 14 12 10 9 7 7 6 5 5 6 5 4 4 5 7 8 9 10 10 10 11 10 11 12 12 12 14 15 13 11 10 10 10 11 12 13 12 12 13 13 15 17 15 11 8 6 8 9 10 10 8 7 7 8 7 6 6 7 6 7 8 7 6 6 5 5 5 5 6 7 8 9 8
12 11 11 11 12 13 12 11 11 10 8 10 12 13 13 14 13 11 11 9 7 7 7 7 7 6 5 5 4 5 7 11 10 9 9 9 9 10 11 11 11 13 14 14 12 10 9 9 10 11 12 11 10 10 11 13 16 16 13 10 9 9 9 10 10 9 9 8 7 8 8 8 9 8 8 9 8 6 6 6 6 6 7 7 8 8 8 8
11 11 11 11 11 12 11 11 10 9 9 11 12 13 13 13 13 12 11 10 9 8 8 8 7 6 6 6 5 4 5 9 11 9 8 9 8 8 9 10 11 12 13 14 13 11 9 10 10 10 9 9 9 9 10 11 14 16 15 13 12 11 10 10 11 10 10 9 7 8 10 11 11 10 9 9 8 7 6 7 7 7 7 7 8 8 8 8
11 11 11 11 12 12 11 10 9 9 10 11 12 12 13 14 13 13 12 12 11 10 10 10 8 8 7 7 7 5 4 6 9 9 9 9 8 6 7 9 10 10 10 12 12 11 10 10 11 10 9 10 10 10 9 9 11 15 16 14 13 12 10 9 11 11 8 7 8 8 10 12 11 10 7 7 8 8 8 7 6 7 7 7 8 9 8 9
12 12 11 12 13 12 10 9 9 10 10 11 12 12 14 14 14 13 13 12 11 11 10 10 9 9 9 8 7 5 4 5 6 7 9 11 10 8 7 8 9 9 9 10 11 11 10 9 10 12 11 11 12 11 9 8 8 10 13 13 11 11 11 10 11 10 7 7 9 7 8 11 10 9 8 7 8 8 8 7 6 7 7 8 9 9 9 9
13 13 12 13 14 11 9 9 9 10 11 11 12 13 14 15 13 12 12 12 11 10 10 10 9 9 9 9 7 5 4 6 6 5 7 9 9 9 9 8 7 8 9 9 9 10 9 8 9 11 11 10 11 10 8 7 5 5 9 11 10 10 11 10 11 10 7 8 8 7 9 10 9 9 8 8 8 8 8 8 7 7 8 8 9 9 9 9
13 13 12 13 14 12 9 10 10 10 11 11 12 13 14 15 15 13 12 11 11 11 11 11 10 10 10 9 8 7 6 6 6 5 5 6 7 8 10 9 8 8 8 8 9 9 9 8 8 9 8 7 8 6 5 5 3 3 5 7 7 8 7 6 7 6 6 8 7 6 9 9 7 7 8 8 7 8 8 9 8 7 8 9 9 9 8 8
13 13 13 13 14 13 11 11 10 10 10 10 11 12 12 13 14 14 13 12 12 12 12 13 12 11 11 10 8 8 7 8 7 5 4 6 6 6 8 10 11 10 8 9 9 8 8 8 6 8 9 8 7 6 6 6 4 3 2 3 4 4 4 5 5 3 4 6 6 5 7 7 7 8 9 9 8 8 8 8 8 8 8 8 8 8 7 7
13 13 12 12 13 13 12 11 10 10 10 10 10 11 12 11 11 13 14 13 12 12 12 14 13 12 12 10 8 8 8 8 8 5 4 4 5 5 7 8 11 13 10 9 8 6 7 8 7 7 10 11 9 9 8 7 6 5 4 4 4 4 3 3 3 3 5 5 5 6 6 6 7 9 9 9 8 8 8 8 7 8 8 8 7 7 7 7
14 13 13 12 12 12 11 11 11 11 10 10 10 11 12 11 10 10 12 12 12 12 12 13 14 14 13 12 9 8 8 7 6 5 4 4 4 4 6 6 11 12 9 8 7 5 6 9 10 8 9 10 10 10 9 6 7 8 7 5 5 5 3 3 3 4 5 5 6 8 6 5 7 9 9 8 8 8 9 8 8 8 8 8 7 7 7 8
15 15 13 11 11 11 11 11 12 12 11 11 11 11 11 11 10 9 10 10 10 10 10 12 14 15 15 14 11 9 8 6 6 6 5 4 4 2 3 4 8 7 6 7 8 6 6 9 11 9 8 8 8 9 6 5 7 7 5 6 6 6 4 3 4 5 6 6 7 8 7 7 8 9 9 8 8 9 9 8 8 8 8 7 7 7 7 8
17 15 13 11 11 11 11 11 11 12 12 12 11 10 10 10 10 9 9 9 9 10 10 11 13 15 15 13 11 10 9 7 6 7 6 5 5 4 2 3 4 4 5 6 8 7 7 9 10 9 7 5 3 4 5 5 6 4 3 5 5 4 4 4 4 5 5 5 6 6 7 8 9 9 9 9 8 8 8 8 8 8 7 7 7 7 8 8
17 16 13 11 11 12 11 10 10 10 11 12 12 10 9 10 10 10 10 10 9 9 9 10 12 14 14 12 11 12 12 10 8 8 8 7 6 5 5 5 4 4 5 7 8 7 7 8 9 8 7 4 3 6 6 5 4 3 3 3 3 3 3 3 3 4 4 4 4 4 5 8 9 8 8 7 7 7 7 8 8 8 7 7 7 7 8 8
18 15 13 12 12 12 10 8 8 9 10 11 11 10 9 10 11 10 10 11 11 9 10 12 12 12 12 11 12 13 14 12 10 10 9 9 8 8 8 8 5 4 6 6 7 8 6 6 8 8 8 7 6 8 8 7 5 3 2 3 3 3 3 4 4 5 5 4 4 5 6 8 9 7 6 6 6 6 7 7 7 7 7 6 7 7 8 8
17 15 14 14 13 12 10 9 9 10 9 9 10 9 9 9 9 10 10 11 9 8 9 11 11 11 11 11 12 14 13 13 14 14 12 11 10 9 10 11 7 5 6 5 5 7 6 4 6 9 10 10 9 9 8 7 4 4 6 6 6 4 4 5 6 7 6 5 5 7 8 8 7 6 5 6 7 7 7 7 7 7 7 6 7 7 7 8
Wind_Direction
291 288 286 287 290 292 292 287 281 278 276 274 272 269 264 261 260 259 258 256 256 255 256 259 261 263 265 272 282 301 327 349 70 104 117 103 90 90 96 88 81 88 83 72 68 61 52 46 43 47 50 55 55 51 57 51 51 54 45 43 48 47 48 49 50 52 53 54 58 61 61 63 63 63 64 63 64 66 66 68 75 81 86 93 95 91 91 94
289 288 284 283 284 286 288 287 284 279 276 274 272 270 267 264 260 258 258 257 256 255 254 255 257 259 260 263 267 280 288 260 236 166 157 123 102 104 102 96 91 89 81 71 65 53 39 34 32 37 43 51 60 65 66 63 60 54 45 48 52 49 50 52 56 59 58 58 61 63 65 66 67 65 63 62 64 67 66 66 73 78 80 84 85 84 85 88
287 287 285 282 281 281 283 284 285 282 278 275 272 269 267 266 263 259 258 257 257 256 255 254 254 256 257 257 260 263 253 230 183 164 161 136 120 115 109 104 101 94 77 66 62 50 34 25 21 25 35 43 65 91 82 69 60 50 46 51 52 50 52 59 64 63 64 66 64 64 66 66 67 65 61 64 65 64 65 67 72 75 79 79 77 77 78 80
285 285 284 283 280 279 279 280 282 283 281 277 273 269 267 266 264 262 259 257 257 256 255 254 253 254 253 254 255 247 232 208 180 173 167 153 137 126 120 113 113 103 70 53 48 39 22 11 11 27 43 44 72 102 90 70 57 47 48 55 57 53 52 61 68 67 70 71 67 64 64 64 66 66 65 67 64 60 62 69 76 80 82 79 74 72 73 77
281 282 283 283 281 279 277 277 278 280 280 279 275 271 268 266 265 263 260 258 256 256 255 254 254 253 252 253 249 236 220 203 197 190 177 170 157 142 133 129 129 114 66 35 27 27 19 9 15 36 58 67 90 99 80 70 66 48 48 61 64 58 56 65 71 72 73 70 66 64 62 64 66 68 68 65 61 60 63 69 76 78 76 75 73 71 69 69
280 280 280 281 281 280 278 277 277 277 278 278 276 273 269 266 264 263 261 259 257 255 255 254 254 252 253 250 239 227 216 207 207 204 197 187 173 164 149 144 143 130 44 4 10 22 17 15 25 42 65 75 102 107 81 74 74 55 49 60 62 61 62 70 72 73 76 71 66 62 61 65 65 64 64 60 57 63 68 71 73 69 68 70 69 67 64 62
282 280 279 279 279 279 279 278 277 276 276 276 276 273 270 267 265 263 261 260 258 255 254 254 253 252 253 245 232 225 219 218 219 215 208 196 185 183 174 167 150 131 25 354 354 5 13 23 37 53 70 71 87 107 87 78 76 64 57 61 63 65 67 73 74 74 76 72 65 62 62 64 63 61 60 59 59 64 68 69 69 65 65 65 62 61 61 60
284 282 281 279 278 278 278 278 277 277 276 275 275 273 270 267 264 263 261 260 259 256 254 252 252 252 250 239 229 227 225 225 225 215 206 201 198 197 194 198 188 163 30 2 351 7 29 35 38 53 70 72 79 103 95 76 68 64 63 66 65 66 70 73 74 72 70 68 66 65 61 59 64 64 61 62 63 65 66 66 66 64 63 61 60 62 59 57
285 284 283 281 279 277 276 276 276 276 276 275 275 273 271 267 264 262 260 259 259 257 256 252 251 251 246 236 229 228 227 223 219 213 208 207 207 207 209 214 212 222 297 330 348 16 35 30 33 47 66 66 60 111 117 73 50 63 72 73 68 68 73 71 68 68 67 66 69 65 55 58 69 65 57 62 68 67 67 65 64 64 63 60 59 61 57 54
285 285 284 282 281 279 277 276 275 275 276 275 275 274 271 268 264 262 259 258 257 256 256 253 252 249 241 235 228 225 224 220 217 217 216 215 214 215 219 221 219 227 268 305 319 323 351 29 39 42 62 61 40 105 135 72 64 93 88 80 77 76 73 70 66 66 66 65 73 66 53 63 69 55 50 61 71 70 68 66 63 63 62 59 56 55 54 54
286 285 284 283 282 280 278 277 275 275 274 274 274 273 272 269 265 262 259 257 256 255 254 253 253 247 238 233 227 224 223 220 221 222 222 221 220 220 221 221 220 227 243 293 307 275 77 42 43 46 68 63 45 68 103 87 99 107 94 77 79 78 67 68 66 64 58 54 73 72 55 58 52 43 54 71 76 74 72 69 63 62 59 56 53 50 51 52
286 286 285 284 282 281 279 278 276 275 274 274 273 272 271 268 266 263 260 257 254 252 251 251 251 245 239 235 228 227 225 223 224 225 226 224 223 222 222 221 219 225 229 252 278 192 149 351 21 37 63 61 61 71 73 94 99 101 90 70 73 71 58 67 67 60 48 42 72 70 45 41 38 45 66 76 78 76 75 74 66 63 60 54 51 49 48 46
287 286 285 284 283 281 280 278 277 275 274 273 273 271 269 267 265 263 260 257 253 251 250 248 247 244 241 237 232 230 230 229 229 229 228 225 226 226 223 224 223 225 227 229 238 235 267 301 340 350 33 67 79 81 80 98 90 83 65 46 63 67 44 49 59 52 40 41 74 55 29 25 32 52 73 76 80 78 73 73 69 64 58 53 50 47 44 41
287 287 286 285 283 282 281 279 277 276 275 274 272 270 268 266 264 262 259 256 253 251 249 246 244 241 239 238 236 235 234 233 231 229 228 225 228 230 227 227 227 227 228 232 237 241 259 260 231 239 113 97 104 91 78 70 41 28 31 19 33 49 8 355 19 42 38 32 50 38 22 14 23 52 81 82 83 82 74 71 69 62 56 52 48 46 43 37
288 288 287 286 285 283 282 280 279 277 276 274 272 269 267 264 262 260 257 253 251 249 248 245 242 239 241 241 239 237 234 231 230 228 226 224 225 229 231 230 229 231 232 235 237 238 243 239 232 228 221 226 94 76 39 351 320 301 305 331 328 327 325 335 329 18 40 17 17 29 24 9 12 45 88 91 86 83 76 67 63 57 55 54 48 46 42 35
288 288 288 287 286 284 283 281 279 278 276 274 271 268 265 263 260 258 255 251 249 248 246 242 239 237 239 240 240 238 232 229 229 226 224 224 225 228 231 230 232 234 235 237 237 239 243 240 238 227 224 247 273 357 345 332 307 293 283 286 286 283 294 312 302 281 10 18 7 18 21 5 4 32 93 104 95 82 70 62 58 52 54 55 49 44 40 33
288 288 287 287 286 285 283 281 280 278 277 275 271 267 264 261 259 257 253 249 247 246 244 241 239 238 238 238 240 238 231 228 227 224 224 226 228 229 230 230 231 233 236 239 238 236 238 232 223 219 224 237 228 353 337 317 294 290 291 287 276 264 268 284 290 278 294 8 2 13 16 356 358 29 98 122 107 77 58 55 58 55 52 51 48 44 37 31
289 288 287 287 286 285 283 281 280 279 277 275 272 266 262 260 257 253 250 247 247 245 244 240 235 235 237 234 233 232 228 228 226 225 227 230 229 228 228 228 230 235 238 239 235 230 228 227 222 229 243 245 251 303 296 286 287 284 279 280 277 269 257 258 265 248 228 341 4 17 7 352 0 22 77 124 113 68 46 52 61 64 60 52 49 43 34 28
289 288 287 287 286 285 283 282 280 279 278 275 270 263 258 258 252 245 246 249 248 243 242 238 230 230 234 230 228 231 234 231 227 227 229 229 228 228 228 228 230 233 232 229 232 228 225 231 232 237 244 246 260 266 271 282 284 278 278 277 266 261 259 257 255 219 184 2 359 10 2 3 10 7 23 86 92 52 43 55 58 59 61 54 49 40 31 26
288 288 287 286 286 285 283 282 280 280 278 272 267 259 253 258 252 247 254 255 247 243 243 240 233 235 238 234 232 237 241 237 230 228 227 226 225 225 227 227 229 230 224 221 228 228 225 232 234 233 235 244 264 273 278 288 285 278 287 289 262 259 264 262 250 219 193 301 323 344 2 4 12 11 9 60 56 43 45 61 54 56 59 54 51 40 28 23
288 287 286 286 285 285 283 281 279 277 275 267 262 256 250 254 251 254 261 256 249 245 244 242 237 237 237 234 238 241 240 239 234 226 222 222 219 221 226 224 225 229 226 221 225 229 227 230 230 225 231 246 265 278 284 294 294 284 286 300 293 282 277 262 228 218 218 270 307 334 355 343 358 7 342 332 6 21 44 64 58 67 66 55 53 42 26 21
288 286 286 286 284 284 282 280 277 273 269 259 255 251 248 252 253 260 262 256 253 248 244 243 240 239 235 233 239 240 236 236 234 226 221 221 219 220 224 222 221 226 227 223 224 231 232 229 227 225 237 256 266 276 285 293 294 280 260 303 311 302 303 273 227 223 228 265 297 310 322 333 348 351 338 325 332 354 41 78 86 89 80 59 51 40 28 24
287 286 286 284 284 284 280 278 273 265 257 252 255 255 256 261 262 267 264 256 255 250 244 241 238 237 233 230 232 231 232 231 227 227 223 222 224 223 223 222 222 225 225 222 221 227 230 229 229 232 244 259 267 274 284 290 289 274 261 304 311 289 287 273 244 231 231 262 287 299 318 337 349 350 337 313 322 357 36 92 101 107 96 70 35 29 31 25
286 285 285 284 284 282 279 275 264 254 253 255 257 260 267 270 266 270 266 254 252 249 244 237 233 234 228 224 225 223 228 228 224 228 224 221 224 225 225 224 222 225 226 223 223 226 230 230 233 240 248 255 262 271 284 287 281 275 265 282 296 270 261 275 251 219 240 272 280 312 325 320 323 333 321 304 330 1 29 90 61 74 77 25 355 11 19 9
286 285 284 284 283 281 277 267 251 252 261 257 255 265 274 274 268 271 266 256 252 247 244 235 230 232 224 220 224 224 229 230 225 228 225 221 221 221 227 225 222 225 226 225 226 228 233 234 235 239 244 249 254 265 277 275 272 275 262 256 267 269 268 267 198 181 227 259 259 255 309 307 301 298 297 296 318 341 341 52 42 49 7 337 347 3 3 356
284 283 283 283 283 282 272 253 249 260 262 253 257 270 273 271 273 272 260 257 255 244 239 232 226 228 224 219 220 222 232 236 231 230 226 222 221 219 225 228 224 225 224 224 228 230 232 234 234 234 239 247 253 262 265 254 262 270 252 247 268 297 287 224 197 204 227 251 255 251 289 304 297 289 284 278 283 318 327 299 283 317 318 319 333 348 343 338
283 281 282 281 282 280 261 248 256 261 254 253 262 268 266 267 274 269 255 257 256 239 230 228 223 225 226 220 214 215 229 237 234 233 226 220 221 220 224 229 228 227 224 224 230 231 230 230 233 234 239 247 251 254 250 241 256 258 248 260 278 313 327 231 219 234 248 270 260 248 280 305 297 291 278 253 257 297 300 273 278 289 309 315 314 326 320 310
280 280 279 278 280 274 255 251 259 253 248 255 262 265 266 266 266 256 241 243 246 232 223 224 221 224 226 218 211 215 226 231 228 230 223 217 218 218 224 229 226 228 227 223 230 233 228 227 230 232 236 241 242 243 243 247 257 251 249 261 257 275 304 287 248 249 263 286 257 250 273 300 299 299 283 245 254 274 260 266 286 285 295 312 307 306 306 300
278 278 276 276 276 266 251 252 253 247 249 256 261 265 265 261 252 240 230 232 238 231 219 218 218 222 223 214 211 218 226 225 220 222 219 217 219 219 226 229 225 230 232 226 230 233 229 227 226 228 231 232 233 237 243 253 256 254 258 264 261 266 281 295 283 268 278 285 257 250 259 286 299 300 282 253 257 257 260 280 294 285 281 293 290 293 298 299
276 275 273 272 268 258 252 254 247 245 253 257 259 261 258 248 234 227 227 229 237 234 219 218 221 217 214 213 215 220 222 220 218 222 223 220 221 222 228 230 226 232 238 233 233 233 231 231 228 227 230 230 233 237 243 253 255 257 269 274 273 269 267 278 285 283 288 282 270 258 250 270 296 292 272 269 268 252 260 285 291 286 286 277 277 288 293 299
274 272 270 266 260 254 252 248 241 245 254 255 256 253 244 235 223 214 216 223 234 231 218 222 227 218 212 217 220 219 220 220 221 223 225 224 223 223 227 232 231 237 245 241 239 237 233 232 230 230 231 231 237 242 245 258 258 254 264 275 276 270 267 276 281 284 279 275 279 271 253 268 291 286 270 271 278 250 244 273 279 277 278 268 273 287 294 303
272 271 268 261 255 251 246 240 242 251 253 251 249 238 226 224 223 215 214 222 225 222 224 227 227 221 219 227 226 218 218 223 223 219 220 223 223 223 224 226 229 237 245 242 240 239 235 231 231 235 234 228 232 241 247 258 263 254 256 266 269 265 269 271 271 271 267 274 282 269 266 288 286 285 280 275 278 256 240 257 255 257 266 262 271 287 298 305
271 271 266 256 250 247 242 240 245 249 249 245 236 225 214 210 216 215 214 222 221 226 240 232 225 218 214 227 230 218 218 222 220 217 223 226 222 223 226 226 224 229 239 239 235 235 237 236 234 236 235 225 224 236 246 255 260 251 242 239 238 243 260 267 265 269 272 281 286 276 283 293 284 292 301 293 284 265 249 253 233 237 251 256 274 293 302 301
271 269 261 252 247 244 240 239 242 242 243 238 225 218 211 205 213 215 217 229 227 240 258 230 214 210 209 224 225 210 213 222 219 216 222 224 218 221 228 231 228 226 233 237 233 229 233 237 233 229 231 227 225 232 237 244 253 248 235 230 235 236 245 258 256 261 268 277 290 295 294 284 280 296 302 299 303 299 288 292 270 260 258 264 290 305 300 294
270 263 255 250 247 241 236 234 236 235 234 230 219 215 210 208 215 214 215 225 227 259 274 223 198 202 215 228 227 211 211 220 220 216 218 218 218 222 226 231 229 225 226 232 235 231 231 238 234 228 229 227 227 231 229 234 250 249 237 237 243 241 245 257 254 255 267 278 290 295 295 284 283 301 303 299 319 343 351 322 290 272 267 279 302 305 293 291
265 257 250 247 243 236 230 228 228 226 225 222 218 217 212 210 212 207 210 222 225 266 283 218 195 202 211 222 227 218 214 219 218 218 225 225 224 226 228 230 228 223 223 228 235 232 230 240 238 229 230 225 223 232 230 229 244 252 246 245 244 239 244 257 261 266 273 274 275 275 277 281 283 300 301 296 304 315 316 315 293 269 271 289 300 295 291 298
259 254 248 243 237 229 224 222 221 221 222 217 215 218 215 211 210 209 220 240 246 255 256 215 205 201 205 223 227 215 212 220 220 222 230 232 232 230 229 232 228 222 221 222 230 232 229 242 239 224 225 228 231 241 240 232 231 239 248 249 246 245 248 253 260 273 279 270 271 269 245 254 273 285 287 285 289 293 297 306 295 280 286 299 301 297 301 309
255 251 245 240 231 221 219 219 217 217 219 216 218 220 213 210 212 218 233 247 254 248 228 210 205 196 204 229 234 222 215 215 218 223 228 231 236 232 225 229 227 221 218 216 227 235 228 240 243 221 218 233 242 246 249 241 231 231 243 246 244 248 249 250 253 264 273 271 277 277 261 264 279 277 264 268 272 274 289 303 293 285 295 304 305 305 309 311
249 243 239 234 222 213 214 216 214 215 217 216 219 217 211 212 217 225 237 241 240 232 216 208 205 206 214 217 226 235 221 215 217 224 226 226 237 236 225 225 226 222 217 212 223 234 225 234 242 221 214 232 243 244 252 251 237 233 241 247 247 248 246 249 250 249 255 262 268 272 274 275 277 270 256 257 262 265 281 291 288 294 305 307 307 308 307 305
239 232 232 228 214 207 208 211 213 215 217 217 217 214 214 216 218 227 238 236 229 222 214 213 213 217 222 219 225 242 233 221 218 223 227 221 227 237 229 225 228 225 217 212 221 230 227 229 234 229 225 233 241 245 252 250 235 226 230 241 247 250 252 252 253 252 252 255 257 262 271 272 271 273 260 249 256 264 268 276 289 305 309 305 307 309 304 302
229 224 228 221 206 201 204 210 217 217 218 221 218 214 216 216 218 230 240 239 233 224 216 216 216 219 221 219 225 238 245 226 217 222 228 220 220 235 234 224 222 218 212 216 223 225 223 223 228 237 239 235 239 244 249 252 237 225 228 240 244 241 244 249 258 263 260 253 247 249 266 271 271 277 266 247 258 265 263 275 295 306 304 302 308 308 302 301
220 218 221 212 202 199 203 213 221 218 217 220 218 217 220 218 219 228 235 238 233 224 217 215 215 219 217 214 222 231 239 231 222 227 230 226 228 236 236 224 213 204 202 215 226 222 217 221 230 240 241 238 243 248 254 259 243 227 234 242 242 240 240 241 249 256 263 263 253 252 271 271 270 279 270 254 260 262 265 279 294 302 300 301 306 305 302 303
216 219 220 210 205 204 210 220 225 222 219 221 220 221 222 219 220 228 233 234 229 221 220 218 217 218 213 213 222 231 242 234 224 235 239 231 228 230 230 221 206 203 205 214 223 218 216 226 235 243 249 252 251 253 260 253 234 244 249 239 236 241 240 239 242 244 256 267 258 263 277 267 264 279 272 259 265 271 283 291 294 300 300 300 304 302 301 303
218 223 221 213 210 212 216 218 221 222 223 225 224 223 222 220 222 230 235 234 227 222 225 223 218 215 210 213 221 225 238 232 221 241 248 230 226 231 234 224 203 204 211 207 203 204 216 231 238 243 252 254 250 253 263 245 238 288 267 226 224 232 225 231 244 245 260 265 251 254 270 263 257 269 270 271 281 291 301 302 298 299 297 299 303 300 297 300
217 220 220 216 214 216 217 215 217 222 225 226 225 222 220 220 224 229 231 229 226 225 227 224 219 216 213 215 220 223 230 224 223 248 254 230 226 231 244 236 211 202 202 194 192 202 221 230 230 229 227 224 224 229 240 242 245 275 253 200 219 225 201 210 230 241 253 254 252 256 259 256 255 260 267 276 286 295 304 306 302 299 296 297 300 295 293 297
211 214 217 216 214 216 219 221 223 224 221 222 223 217 212 216 228 232 226 223 229 233 230 222 219 219 217 217 220 227 227 215 216 237 245 228 226 242 265 248 205 191 188 186 193 211 227 228 224 220 217 217 217 223 239 244 228 226 226 211 214 216 204 213 225 243 241 242 273 280 259 241 248 255 262 271 281 291 298 299 296 294 294 298 298 291 290 295
206 210 212 210 212 216 221 224 223 219 215 214 215 212 213 221 234 236 224 220 227 232 229 222 217 216 219 221 223 229 231 222 222 232 231 221 227 265 275 226 184 183 190 197 210 225 236 235 230 223 223 226 228 236 253 249 215 215 223 219 217 221 235 244 227 234 246 259 277 276 265 249 250 254 260 267 277 286 287 286 286 289 294 297 294 290 291 294
205 208 209 211 213 214 219 222 219 217 217 215 212 213 221 228 233 234 227 224 227 224 221 222 218 214 218 223 222 225 232 234 232 225 219 219 223 259 275 206 193 200 211 227 240 239 236 236 227 218 228 242 243 241 243 224 213 221 221 219 232 238 239 243 226 230 255 270 263 257 261 269 263 258 262 268 271 275 277 278 283 289 294 293 289 290 294 296
206 208 212 217 214 214 223 226 218 215 214 210 209 213 221 227 230 229 221 219 226 222 214 220 222 217 218 220 217 220 224 223 226 222 217 218 218 218 228 216 216 225 227 241 249 242 238 237 223 210 220 242 230 190 185 195 209 217 212 222 244 253 255 260 251 255 274 273 257 251 264 279 278 267 266 271 272 274 277 279 283 287 290 288 286 289 295 297
205 205 211 218 215 215 223 224 218 216 209 202 205 214 223 228 232 230 220 216 224 222 213 219 223 217 216 213 209 217 220 212 214 222 216 212 217 220 221 214 215 235 238 239 243 245 247 238 219 205 213 219 159 150 168 179 172 167 198 232 246 256 274 278 263 278 300 289 273 266 267 281 286 276 271 274 275 277 278 276 281 286 286 284 285 289 294 296
206 208 212 214 212 210 212 214 214 210 202 198 205 215 224 229 231 230 223 217 219 221 221 222 218 212 214 213 211 222 228 221 222 229 219 212 221 230 227 219 218 242 244 240 239 237 238 234 220 208 210 211 177 157 168 173 161 161 224 247 253 256 265 275 273 278 284 279 278 279 275 280 285 281 279 276 271 271 273 276 285 290 287 282 283 290 295 297
208 209 209 207 206 205 205 208 207 199 196 201 206 210 218 225 229 228 222 215 215 220 223 218 207 201 210 216 219 227 233 232 231 232 226 223 233 241 237 232 234 238 231 235 245 233 221 226 222 208 211 218 204 184 188 196 209 242 256 258 265 269 268 281 291 291 288 282 278 279 281 284 284 281 280 275 271 271 274 278 284 285 286 288 288 293 300 304